Time,TemperatureF,DewpointF,PressureIn,WindDirection,WindDirectionDegrees,WindSpeedMPH,WindSpeedGustMPH,Humidity,HourlyPrecipIn,Conditions,Clouds,dailyrainin,SolarRadiationWatts/m^2,SoftwareType,DateUTC
2013-02-02 00:01:00,-4.1,-8.7,30.04,SE,144,0.0,0.0,80,0.00,-RA,,0.00,0.0,WeatherDisplay:10.37,2013-02-02 06:01:00,
2013-02-02 00:06:00,-4.1,-8.7,30.04,SE,144,0.0,0.0,80,0.00,-RA,,0.00,0.0,WeatherDisplay:10.37,2013-02-02 06:06:00,
2013-02-02 00:11:00,-4.2,-8.8,30.04,SE,144,0.0,0.0,80,0.00,-RA,,0.00,0.0,WeatherDisplay:10.37,2013-02-02 06:11:00,
2013-02-02 00:16:00,-4.2,-8.8,30.04,SE,144,0.0,0.0,80,0.00,-RA,,0.00,0.0,WeatherDisplay:10.37,2013-02-02 06:16:00,
2013-02-02 00:21:00,-4.3,-8.9,30.04,SE,144,0.0,0.0,80,0.00,-RA,,0.00,0.0,WeatherDisplay:10.37,2013-02-02 06:21:00,
2013-02-02 00:26:00,-4.3,-8.9,30.04,SE,144,0.0,0.0,80,0.00,-RA,,0.00,0.0,WeatherDisplay:10.37,2013-02-02 06:26:00,
2013-02-02 00:31:00,-4.4,-9.0,30.04,SE,144,0.0,0.0,80,0.00,-RA,,0.00,0.0,WeatherDisplay:10.37,2013-02-02 06:31:00,
2013-02-02 00:36:00,-4.4,-9.0,30.04,SE,144,0.0,0.0,80,0.00,-RA,,0.00,0.0,WeatherDisplay:10.37,2013-02-02 06:36:00,
2013-02-02 00:41:00,-4.5,-9.4,30.04,SE,144,0.0,0.0,79,0.00,-RA,,0.00,0.0,WeatherDisplay:10.37,2013-02-02 06:41:00,
2013-02-02 00:46:00,-4.6,-9.2,30.04,SE,144,0.0,0.0,80,0.00,-RA,,0.00,0.0,WeatherDisplay:10.37,2013-02-02 06:46:00,
2013-02-02 00:51:00,-4.7,-9.3,30.04,SE,144,0.0,0.0,80,0.00,-RA,,0.00,0.0,WeatherDisplay:10.37,2013-02-02 06:51:00,
2013-02-02 00:56:00,-4.8,-9.7,30.04,SE,144,0.0,0.0,79,0.00,-RA,,0.00,0.0,WeatherDisplay:10.37,2013-02-02 06:56:00,
2013-02-02 01:01:00,-4.9,-9.7,30.04,SE,144,0.0,0.0,79,0.00,-RA,,0.00,0.0,WeatherDisplay:10.37,2013-02-02 07:01:00,
2013-02-02 01:06:00,-5.0,-9.8,30.04,SE,144,0.0,0.0,79,0.00,-RA,,0.00,0.0,WeatherDisplay:10.37,2013-02-02 07:06:00,
2013-02-02 01:11:00,-5.2,-10.0,30.04,SE,144,0.0,0.0,79,0.00,-RA,,0.00,0.0,WeatherDisplay:10.37,2013-02-02 07:11:00,
2013-02-02 01:16:00,-5.3,-10.1,30.04,SE,144,0.0,0.0,79,0.00,-RA,,0.00,0.0,WeatherDisplay:10.37,2013-02-02 07:16:00,
2013-02-02 01:21:00,-5.4,-10.2,30.04,SE,144,0.0,0.0,79,0.00,-RA,,0.00,0.0,WeatherDisplay:10.37,2013-02-02 07:21:00,
2013-02-02 01:26:00,-5.6,-10.4,30.04,SE,144,0.0,0.0,79,0.00,-RA,,0.00,0.0,WeatherDisplay:10.37,2013-02-02 07:26:00,
2013-02-02 01:31:00,-5.7,-10.5,30.04,SE,144,0.0,0.0,79,0.00,-RA,,0.00,0.0,WeatherDisplay:10.37,2013-02-02 07:31:00,
2013-02-02 01:36:00,-5.9,-10.7,30.05,SE,144,0.0,0.0,79,0.00,-RA,,0.00,0.0,WeatherDisplay:10.37,2013-02-02 07:36:00,
2013-02-02 01:41:00,-6.1,-10.9,30.05,SE,144,0.0,0.0,79,0.00,-RA,,0.00,0.0,WeatherDisplay:10.37,2013-02-02 07:41:00,
2013-02-02 01:46:00,-6.3,-11.1,30.05,SE,144,0.0,0.0,79,0.00,-RA,,0.00,0.0,WeatherDisplay:10.37,2013-02-02 07:46:00,
2013-02-02 01:51:00,-6.5,-11.6,30.05,SE,144,0.0,0.0,78,0.00,-RA,,0.00,0.0,WeatherDisplay:10.37,2013-02-02 07:51:00,
2013-02-02 01:56:00,-6.7,-11.8,30.05,SE,144,0.0,0.0,78,0.00,-RA,,0.00,0.0,WeatherDisplay:10.37,2013-02-02 07:56:00,
2013-02-02 02:01:00,-6.9,-12.0,30.06,SE,144,0.0,0.0,78,0.00,-RA,,0.00,0.0,WeatherDisplay:10.37,2013-02-02 08:01:00,
2013-02-02 02:06:00,-7.1,-12.2,30.06,SE,144,0.0,0.0,78,0.00,-RA,,0.00,0.0,WeatherDisplay:10.37,2013-02-02 08:06:00,
2013-02-02 02:11:00,-7.4,-12.4,30.06,SE,144,0.0,0.0,78,0.00,-RA,,0.00,0.0,WeatherDisplay:10.37,2013-02-02 08:11:00,
2013-02-02 02:16:00,-7.7,-13.0,30.06,SE,144,0.0,0.0,77,0.00,-RA,,0.00,0.0,WeatherDisplay:10.37,2013-02-02 08:16:00,
2013-02-02 02:21:00,-8.0,-13.3,30.06,SE,144,0.0,0.0,77,0.00,-RA,,0.00,0.0,WeatherDisplay:10.37,2013-02-02 08:21:00,
2013-02-02 02:26:00,-8.3,-13.6,30.06,SE,144,0.0,0.0,77,0.00,-RA,,0.00,0.0,WeatherDisplay:10.37,2013-02-02 08:26:00,
2013-02-02 02:31:00,-8.6,-13.9,30.07,SE,144,0.0,0.0,77,0.00,-RA,,0.00,0.0,WeatherDisplay:10.37,2013-02-02 08:31:00,
2013-02-02 02:36:00,-8.8,-14.1,30.07,SE,144,0.0,0.0,77,0.00,-RA,,0.00,0.0,WeatherDisplay:10.37,2013-02-02 08:36:00,
2013-02-02 02:41:00,-9.1,-14.4,30.07,SE,144,0.0,0.0,77,0.00,-RA,,0.00,0.0,WeatherDisplay:10.37,2013-02-02 08:41:00,
2013-02-02 02:46:00,-9.4,-14.7,30.07,SE,144,0.0,0.0,77,0.00,-RA,,0.00,0.0,WeatherDisplay:10.37,2013-02-02 08:46:00,
2013-02-02 02:51:00,-9.6,-14.8,30.07,SE,144,0.0,0.0,77,0.00,-RA,,0.00,0.0,WeatherDisplay:10.37,2013-02-02 08:51:00,
2013-02-02 02:56:00,-9.8,-15.0,30.07,SE,144,0.0,0.0,77,0.00,-RA,,0.00,0.0,WeatherDisplay:10.37,2013-02-02 08:56:00,
2013-02-02 03:01:00,-10.0,-15.2,30.07,SE,144,0.0,0.0,77,0.00,-RA,,0.00,0.0,WeatherDisplay:10.37,2013-02-02 09:01:00,
2013-02-02 03:06:00,-10.2,-15.4,30.08,SE,144,0.0,0.0,77,0.00,-RA,,0.00,0.0,WeatherDisplay:10.37,2013-02-02 09:06:00,
2013-02-02 03:11:00,-10.4,-15.6,30.07,SE,144,0.0,0.0,77,0.00,-RA,,0.00,0.0,WeatherDisplay:10.37,2013-02-02 09:11:00,
2013-02-02 03:16:00,-10.7,-16.2,30.07,SE,144,0.0,0.0,76,0.00,-RA,,0.00,0.0,WeatherDisplay:10.37,2013-02-02 09:16:00,
2013-02-02 03:21:00,-10.9,-16.1,30.07,SE,144,0.0,0.0,77,0.00,-RA,,0.00,0.0,WeatherDisplay:10.37,2013-02-02 09:21:00,
2013-02-02 03:26:00,-11.2,-16.7,30.07,SE,144,0.0,0.0,76,0.00,-RA,,0.00,0.0,WeatherDisplay:10.37,2013-02-02 09:26:00,
2013-02-02 03:31:00,-11.5,-17.0,30.07,SE,144,0.0,0.0,76,0.00,-RA,,0.00,0.0,WeatherDisplay:10.37,2013-02-02 09:31:00,
2013-02-02 03:36:00,-11.8,-17.2,30.07,SE,144,0.0,0.0,76,0.00,-RA,,0.00,0.0,WeatherDisplay:10.37,2013-02-02 09:36:00,
2013-02-02 03:41:00,-12.2,-17.9,30.07,SE,144,0.0,0.0,75,0.00,-RA,,0.00,0.0,WeatherDisplay:10.37,2013-02-02 09:41:00,
2013-02-02 03:46:00,-12.5,-18.2,30.07,SE,144,0.0,0.0,75,0.00,-RA,,0.00,0.0,WeatherDisplay:10.37,2013-02-02 09:46:00,
2013-02-02 03:51:00,-12.9,-18.6,30.08,SE,144,0.0,0.0,75,0.00,-RA,,0.00,0.0,WeatherDisplay:10.37,2013-02-02 09:51:00,
2013-02-02 03:56:00,-13.2,-18.9,30.07,SE,144,0.0,0.0,75,0.00,-RA,,0.00,0.0,WeatherDisplay:10.37,2013-02-02 09:56:00,
2013-02-02 04:01:00,-13.6,-19.3,30.08,SE,144,0.0,0.0,75,0.00,-RA,,0.00,0.0,WeatherDisplay:10.37,2013-02-02 10:01:00,
2013-02-02 04:06:00,-13.9,-19.5,30.08,SE,144,0.0,0.0,75,0.00,-RA,,0.00,0.0,WeatherDisplay:10.37,2013-02-02 10:06:00,
2013-02-02 04:11:00,-14.2,-19.8,30.08,SE,144,0.0,0.0,75,0.00,-RA,,0.00,0.0,WeatherDisplay:10.37,2013-02-02 10:11:00,
2013-02-02 04:16:00,-14.5,-20.1,30.08,SE,144,0.0,0.0,75,0.00,-RA,,0.00,0.0,WeatherDisplay:10.37,2013-02-02 10:16:00,
2013-02-02 04:21:00,-14.9,-20.8,30.08,SE,144,0.0,0.0,74,0.00,-RA,,0.00,0.0,WeatherDisplay:10.37,2013-02-02 10:21:00,
2013-02-02 04:26:00,-15.2,-21.1,30.08,SE,144,0.0,0.0,74,0.00,-RA,,0.00,0.0,WeatherDisplay:10.37,2013-02-02 10:26:00,
2013-02-02 04:31:00,-15.5,-21.4,30.09,SE,144,0.0,0.0,74,0.00,-RA,,0.00,0.0,WeatherDisplay:10.37,2013-02-02 10:31:00,
2013-02-02 04:36:00,-15.8,-21.6,30.09,SE,144,0.0,0.0,74,0.00,-RA,,0.00,0.0,WeatherDisplay:10.37,2013-02-02 10:36:00,
2013-02-02 04:41:00,-16.2,-22.0,30.09,SE,144,0.0,0.0,74,0.00,-RA,,0.00,0.0,WeatherDisplay:10.37,2013-02-02 10:41:00,
2013-02-02 04:46:00,-16.5,-22.3,30.09,SE,144,0.0,0.0,74,0.00,-RA,,0.00,0.0,WeatherDisplay:10.37,2013-02-02 10:46:00,
2013-02-02 04:51:00,-16.7,-22.5,30.08,SE,144,0.0,0.0,74,0.00,-RA,,0.00,0.0,WeatherDisplay:10.37,2013-02-02 10:51:00,
2013-02-02 04:56:00,-17.0,-22.8,30.08,SE,144,0.0,0.0,74,0.00,-RA,,0.00,0.0,WeatherDisplay:10.37,2013-02-02 10:56:00,
2013-02-02 05:01:00,-17.2,-23.0,30.08,SE,144,0.0,0.0,74,0.00,-RA,,0.00,0.0,WeatherDisplay:10.37,2013-02-02 11:01:00,
2013-02-02 05:06:00,-17.5,-23.3,30.08,SE,144,0.0,0.0,74,0.00,-RA,,0.00,0.0,WeatherDisplay:10.37,2013-02-02 11:06:00,
2013-02-02 05:11:00,-17.7,-23.5,30.08,SE,144,0.0,0.0,74,0.00,-RA,,0.00,0.0,WeatherDisplay:10.37,2013-02-02 11:11:00,
2013-02-02 05:16:00,-17.9,-23.7,30.08,SE,144,0.0,0.0,74,0.00,-RA,,0.00,0.0,WeatherDisplay:10.37,2013-02-02 11:16:00,
2013-02-02 05:22:00,-18.2,-24.0,30.09,SE,144,0.0,0.0,74,0.00,-RA,,0.00,0.0,WeatherDisplay:10.37,2013-02-02 11:22:00,
2013-02-02 05:27:00,-18.4,-24.2,30.09,SE,144,0.0,0.0,74,0.00,-RA,,0.00,0.0,WeatherDisplay:10.37,2013-02-02 11:27:00,
2013-02-02 05:32:00,-18.7,-24.5,30.09,SE,144,0.0,0.0,74,0.00,-RA,,0.00,0.0,WeatherDisplay:10.37,2013-02-02 11:32:00,
2013-02-02 05:37:00,-19.0,-25.0,30.09,SE,144,0.0,0.0,73,0.00,-RA,,0.00,0.0,WeatherDisplay:10.37,2013-02-02 11:37:00,
2013-02-02 05:42:00,-19.3,-25.3,30.09,SE,144,0.0,0.0,73,0.00,-RA,,0.00,0.0,WeatherDisplay:10.37,2013-02-02 11:42:00,
2013-02-02 05:47:00,-19.6,-25.6,30.08,SE,144,0.0,0.0,73,0.00,-RA,,0.00,0.0,WeatherDisplay:10.37,2013-02-02 11:47:00,
2013-02-02 05:52:00,-19.8,-25.8,30.08,SE,144,0.0,0.0,73,0.00,-RA,,0.00,0.0,WeatherDisplay:10.37,2013-02-02 11:52:00,
2013-02-02 05:57:00,-20.1,-26.1,30.08,SE,144,0.0,0.0,73,0.00,-RA,,0.00,0.0,WeatherDisplay:10.37,2013-02-02 11:57:00,
2013-02-02 06:02:00,-20.2,-26.2,30.09,SE,144,0.0,0.0,73,0.00,-RA,,0.00,0.0,WeatherDisplay:10.37,2013-02-02 12:02:00,
2013-02-02 06:07:00,-20.5,-26.5,30.09,SE,144,0.0,0.0,73,0.00,-RA,,0.00,0.0,WeatherDisplay:10.37,2013-02-02 12:07:00,
2013-02-02 06:12:00,-20.7,-26.7,30.08,SE,144,0.0,0.0,73,0.00,-RA,,0.00,0.0,WeatherDisplay:10.37,2013-02-02 12:12:00,
2013-02-02 06:17:00,-20.9,-26.8,30.08,SE,144,0.0,0.0,73,0.00,-RA,,0.00,0.0,WeatherDisplay:10.37,2013-02-02 12:17:00,
2013-02-02 06:22:00,-21.1,-27.0,30.08,SE,144,0.0,0.0,73,0.00,-RA,,0.00,0.0,WeatherDisplay:10.37,2013-02-02 12:22:00,
2013-02-02 06:27:00,-21.3,-27.2,30.08,SE,144,0.0,0.0,73,0.00,-RA,,0.00,0.0,WeatherDisplay:10.37,2013-02-02 12:27:00,
2013-02-02 06:32:00,-21.4,-27.3,30.08,SE,144,0.0,0.0,73,0.00,-RA,,0.00,0.0,WeatherDisplay:10.37,2013-02-02 12:32:00,
2013-02-02 06:37:00,-21.6,-27.5,30.08,SE,144,0.0,0.0,73,0.00,-RA,,0.00,0.0,WeatherDisplay:10.37,2013-02-02 12:37:00,
2013-02-02 06:42:00,-21.8,-27.7,30.08,SE,144,0.0,0.0,73,0.00,-RA,,0.00,0.0,WeatherDisplay:10.37,2013-02-02 12:42:00,
2013-02-02 06:47:00,-22.0,-27.9,30.08,SE,144,0.0,0.0,73,0.00,-RA,,0.00,0.0,WeatherDisplay:10.37,2013-02-02 12:47:00,
2013-02-02 06:52:00,-22.1,-28.0,30.08,SE,144,0.0,0.0,73,0.00,-RA,,0.00,0.0,WeatherDisplay:10.37,2013-02-02 12:52:00,
2013-02-02 06:57:00,-22.3,-28.2,30.08,SE,144,0.0,0.0,73,0.00,-RA,,0.00,0.0,WeatherDisplay:10.37,2013-02-02 12:57:00,
2013-02-02 07:02:00,-22.4,-28.3,30.07,SE,144,0.0,0.0,73,0.00,-RA,,0.00,0.0,WeatherDisplay:10.37,2013-02-02 13:02:00,
2013-02-02 07:07:00,-22.5,-28.4,30.07,SE,144,0.0,0.0,73,0.00,-RA,,0.00,0.0,WeatherDisplay:10.37,2013-02-02 13:07:00,
2013-02-02 07:12:00,-22.6,-28.2,30.07,SE,144,0.0,0.0,74,0.00,-RA,,0.00,0.0,WeatherDisplay:10.37,2013-02-02 13:12:00,
2013-02-02 07:17:00,-22.8,-28.4,30.07,SE,144,0.0,0.0,74,0.00,-RA,,0.00,0.0,WeatherDisplay:10.37,2013-02-02 13:17:00,
2013-02-02 07:22:00,-22.9,-28.5,30.07,SE,144,0.0,0.0,74,0.00,-RA,,0.00,0.0,WeatherDisplay:10.37,2013-02-02 13:22:00,
2013-02-02 07:27:00,-23.0,-28.6,30.07,SE,144,0.0,0.0,74,0.00,-RA,,0.00,0.0,WeatherDisplay:10.37,2013-02-02 13:27:00,
2013-02-02 07:32:00,-23.1,-28.7,30.07,SE,144,0.0,0.0,74,0.00,-RA,,0.00,0.0,WeatherDisplay:10.37,2013-02-02 13:32:00,
2013-02-02 07:37:00,-23.2,-28.8,30.07,SE,144,0.0,0.0,74,0.00,-RA,,0.00,0.0,WeatherDisplay:10.37,2013-02-02 13:37:00,
2013-02-02 07:42:00,-23.3,-28.9,30.07,SE,144,0.0,0.0,74,0.00,-RA,,0.00,0.0,WeatherDisplay:10.37,2013-02-02 13:42:00,
2013-02-02 07:47:00,-23.4,-29.0,30.08,SE,144,0.0,0.0,74,0.00,-RA,,0.00,0.0,WeatherDisplay:10.37,2013-02-02 13:47:00,
2013-02-02 07:52:00,-23.5,-29.1,30.08,SE,144,0.0,0.0,74,0.00,-RA,,0.00,0.0,WeatherDisplay:10.37,2013-02-02 13:52:00,
2013-02-02 07:57:00,-23.5,-29.1,30.08,SE,144,0.0,0.0,74,0.00,-RA,,0.00,0.0,WeatherDisplay:10.37,2013-02-02 13:57:00,
2013-02-02 08:02:00,-23.6,-29.2,30.08,SE,144,0.0,0.0,74,0.00,-RA,,0.00,0.0,WeatherDisplay:10.37,2013-02-02 14:02:00,
2013-02-02 08:07:00,-23.6,-29.2,30.08,SE,144,0.0,0.0,74,0.00,-RA,,0.00,0.0,WeatherDisplay:10.37,2013-02-02 14:07:00,
2013-02-02 08:12:00,-23.6,-29.2,30.07,SE,144,0.0,0.0,74,0.00,-RA,,0.00,0.0,WeatherDisplay:10.37,2013-02-02 14:12:00,
2013-02-02 08:17:00,-23.6,-29.2,30.07,SE,144,0.0,0.0,74,0.00,-RA,,0.00,5.0,WeatherDisplay:10.37,2013-02-02 14:17:00,
2013-02-02 08:22:00,-23.5,-28.9,30.07,SE,144,0.0,0.0,75,0.00,-RA,,0.00,5.0,WeatherDisplay:10.37,2013-02-02 14:22:00,
2013-02-02 08:27:00,-23.4,-28.8,30.08,SE,144,0.0,0.0,75,0.00,-RA,,0.00,7.0,WeatherDisplay:10.37,2013-02-02 14:27:00,
2013-02-02 08:32:00,-23.2,-28.6,30.08,SE,144,0.0,0.0,75,0.00,-RA,,0.00,7.0,WeatherDisplay:10.37,2013-02-02 14:32:00,
2013-02-02 08:37:00,-23.0,-28.1,30.08,SE,144,0.0,0.0,76,0.00,-RA,,0.00,7.0,WeatherDisplay:10.37,2013-02-02 14:37:00,
2013-02-02 08:42:00,-22.8,-27.9,30.08,SE,144,0.0,0.0,76,0.00,-RA,,0.00,9.0,WeatherDisplay:10.37,2013-02-02 14:42:00,
2013-02-02 08:47:00,-22.6,-27.8,30.08,SE,144,0.0,0.0,76,0.00,-RA,,0.00,9.0,WeatherDisplay:10.37,2013-02-02 14:47:00,
2013-02-02 08:52:00,-22.3,-27.2,30.07,SE,144,0.0,0.0,77,0.00,-RA,,0.00,9.0,WeatherDisplay:10.37,2013-02-02 14:52:00,
2013-02-02 08:57:00,-21.9,-26.8,30.08,SE,144,0.0,0.0,77,0.00,-RA,,0.00,9.0,WeatherDisplay:10.37,2013-02-02 14:57:00,
2013-02-02 09:02:00,-21.4,-26.1,30.08,SE,144,0.0,0.0,78,0.00,-RA,,0.00,11.0,WeatherDisplay:10.37,2013-02-02 15:02:00,
2013-02-02 09:07:00,-21.0,-25.7,30.08,SE,144,0.0,0.0,78,0.00,-RA,,0.00,11.0,WeatherDisplay:10.37,2013-02-02 15:07:00,
2013-02-02 09:12:00,-20.6,-25.3,30.08,SE,144,0.0,0.0,78,0.00,-RA,,0.00,11.0,WeatherDisplay:10.37,2013-02-02 15:12:00,
2013-02-02 09:17:00,-20.2,-24.7,30.08,SE,144,0.0,0.0,79,0.00,-RA,,0.00,12.0,WeatherDisplay:10.37,2013-02-02 15:17:00,
2013-02-02 09:22:00,-19.7,-24.2,30.08,SE,144,0.0,0.0,79,0.00,-RA,,0.00,14.0,WeatherDisplay:10.37,2013-02-02 15:22:00,
2013-02-02 09:27:00,-19.1,-23.6,30.07,SE,144,0.0,0.0,79,0.00,-RA,,0.00,14.0,WeatherDisplay:10.37,2013-02-02 15:27:00,
2013-02-02 09:32:00,-18.5,-22.8,30.07,SE,144,0.0,0.0,80,0.00,-RA,,0.00,14.0,WeatherDisplay:10.37,2013-02-02 15:32:00,
2013-02-02 09:37:00,-17.9,-22.2,30.07,SE,144,0.0,0.0,80,0.00,-RA,,0.00,19.0,WeatherDisplay:10.37,2013-02-02 15:37:00,
2013-02-02 09:42:00,-17.0,-21.3,30.06,SE,144,0.0,0.0,80,0.00,-RA,,0.00,16.0,WeatherDisplay:10.37,2013-02-02 15:42:00,
2013-02-02 09:47:00,-16.3,-20.4,30.06,SE,144,0.0,0.0,81,0.00,-RA,,0.00,14.0,WeatherDisplay:10.37,2013-02-02 15:47:00,
2013-02-02 09:52:00,-15.5,-19.6,30.06,SE,144,0.0,0.0,81,0.00,-RA,,0.00,18.0,WeatherDisplay:10.37,2013-02-02 15:52:00,
2013-02-02 09:57:00,-14.7,-18.8,30.05,SE,144,0.0,0.0,81,0.00,-RA,,0.00,25.0,WeatherDisplay:10.37,2013-02-02 15:57:00,
2013-02-02 10:02:00,-13.8,-18.0,30.05,SE,144,0.0,0.0,81,0.00,-RA,,0.00,26.0,WeatherDisplay:10.37,2013-02-02 16:02:00,
2013-02-02 10:07:00,-12.7,-16.6,30.05,SE,144,0.0,0.0,82,0.00,-RA,,0.00,25.0,WeatherDisplay:10.37,2013-02-02 16:07:00,
2013-02-02 10:12:00,-11.5,-15.2,30.05,SE,144,0.0,0.0,83,0.00,-RA,,0.00,25.0,WeatherDisplay:10.37,2013-02-02 16:12:00,
2013-02-02 10:17:00,-10.3,-14.0,30.04,SE,144,0.0,0.0,83,0.00,-RA,,0.00,25.0,WeatherDisplay:10.37,2013-02-02 16:17:00,
2013-02-02 10:22:00,-9.3,-13.1,30.04,SE,144,0.0,0.0,83,0.00,-RA,,0.00,21.0,WeatherDisplay:10.37,2013-02-02 16:22:00,
2013-02-02 10:27:00,-8.3,-12.1,30.03,SE,144,0.0,0.0,83,0.00,-RA,,0.00,26.0,WeatherDisplay:10.37,2013-02-02 16:27:00,
2013-02-02 10:32:00,-7.3,-11.1,30.03,SE,144,0.0,0.0,83,0.00,-RA,,0.00,32.0,WeatherDisplay:10.37,2013-02-02 16:32:00,
2013-02-02 10:37:00,-6.3,-10.1,30.03,SE,144,0.0,0.0,83,0.00,-RA,,0.00,28.0,WeatherDisplay:10.37,2013-02-02 16:37:00,
2013-02-02 10:42:00,-5.2,-8.8,30.03,SE,144,0.0,0.0,84,0.00,-RA,,0.00,30.0,WeatherDisplay:10.37,2013-02-02 16:42:00,
2013-02-02 10:47:00,-4.1,-8.0,30.03,SSE,157,2.0,2.0,83,0.00,-RA,,0.00,32.0,WeatherDisplay:10.37,2013-02-02 16:47:00,
2013-02-02 10:52:00,-3.3,-7.2,30.03,SSE,157,1.1,1.1,83,0.00,-RA,,0.00,32.0,WeatherDisplay:10.37,2013-02-02 16:52:00,
2013-02-02 10:57:00,-2.4,-6.3,30.03,South,169,0.0,0.0,83,0.00,-RA,,0.00,26.0,WeatherDisplay:10.37,2013-02-02 16:57:00,
2013-02-02 11:02:00,-1.8,-5.7,30.04,SSE,168,2.0,2.0,83,0.00,-RA,,0.00,28.0,WeatherDisplay:10.37,2013-02-02 17:02:00,
2013-02-02 11:07:00,-1.2,-5.4,30.04,South,169,1.1,0.0,82,0.00,-RA,,0.00,26.0,WeatherDisplay:10.37,2013-02-02 17:07:00,
2013-02-02 11:12:00,-0.5,-4.7,30.03,South,188,3.0,3.0,82,0.00,-RA,,0.00,28.0,WeatherDisplay:10.37,2013-02-02 17:12:00,
2013-02-02 11:17:00,0.1,-4.3,30.03,South,187,2.3,0.0,81,0.00,-RA,,0.00,32.0,WeatherDisplay:10.37,2013-02-02 17:17:00,
2013-02-02 11:22:00,0.8,-3.9,30.02,South,187,0.0,0.1,80,0.00,-RA,,0.00,37.0,WeatherDisplay:10.37,2013-02-02 17:22:00,
2013-02-02 11:27:00,1.5,-3.5,30.02,South,187,0.0,0.0,79,0.00,-RA,,0.00,35.0,WeatherDisplay:10.37,2013-02-02 17:27:00,
2013-02-02 11:32:00,2.2,-3.4,30.02,SSW,206,5.0,5.0,77,0.00,-RA,,0.00,33.0,WeatherDisplay:10.37,2013-02-02 17:32:00,
2013-02-02 11:37:00,2.7,-3.4,30.02,SSW,205,3.5,3.5,75,0.00,-RA,,0.00,33.0,WeatherDisplay:10.37,2013-02-02 17:37:00,
2013-02-02 11:42:00,3.2,-3.5,30.01,SSW,205,4.0,4.0,73,0.00,-RA,,0.00,33.0,WeatherDisplay:10.37,2013-02-02 17:42:00,
2013-02-02 11:47:00,3.6,-3.7,30.00,SSW,193,4.6,4.6,71,0.00,-RA,,0.00,35.0,WeatherDisplay:10.37,2013-02-02 17:47:00,
2013-02-02 11:52:00,3.9,-3.7,30.00,SSW,193,3.5,3.5,70,0.00,-RA,,0.00,32.0,WeatherDisplay:10.37,2013-02-02 17:52:00,
2013-02-02 11:57:00,4.2,-3.4,29.99,South,190,2.3,2.3,70,0.00,-RA,,0.00,33.0,WeatherDisplay:10.37,2013-02-02 17:57:00,
2013-02-02 12:02:00,4.5,-3.4,29.98,South,190,0.0,0.0,69,0.00,-RA,,0.00,35.0,WeatherDisplay:10.37,2013-02-02 18:02:00,
2013-02-02 12:07:00,4.7,-3.2,29.97,South,190,2.3,0.0,69,0.00,-RA,,0.00,35.0,WeatherDisplay:10.37,2013-02-02 18:07:00,
2013-02-02 12:12:00,5.2,-2.8,29.97,South,190,2.0,2.0,69,0.00,-RA,,0.00,40.0,WeatherDisplay:10.37,2013-02-02 18:12:00,
2013-02-02 12:17:00,5.7,-2.6,29.97,South,187,3.5,3.5,68,0.00,-RA,,0.00,37.0,WeatherDisplay:10.37,2013-02-02 18:17:00,
2013-02-02 12:22:00,6.0,-2.3,29.96,South,188,1.1,0.0,68,0.00,-RA,,0.00,46.0,WeatherDisplay:10.37,2013-02-02 18:22:00,
2013-02-02 12:27:00,6.5,-1.8,29.95,South,188,0.0,0.0,68,0.00,-RA,,0.00,42.0,WeatherDisplay:10.37,2013-02-02 18:27:00,
2013-02-02 12:32:00,7.0,-1.7,29.95,South,187,1.1,0.0,67,0.00,-RA,,0.00,44.0,WeatherDisplay:10.37,2013-02-02 18:32:00,
2013-02-02 12:38:00,7.6,-1.4,29.96,South,187,0.0,0.1,66,0.00,-RA,,0.00,47.0,WeatherDisplay:10.37,2013-02-02 18:38:00,
2013-02-02 12:43:00,8.2,-0.8,29.96,South,187,1.1,1.1,66,0.00,-RA,,0.00,49.0,WeatherDisplay:10.37,2013-02-02 18:43:00,
2013-02-02 12:48:00,8.8,-0.9,29.96,South,188,0.0,0.1,64,0.00,-RA,,0.00,56.0,WeatherDisplay:10.37,2013-02-02 18:48:00,
2013-02-02 12:53:00,9.2,-0.9,29.96,South,187,1.1,1.1,63,0.00,-RA,,0.00,42.0,WeatherDisplay:10.37,2013-02-02 18:53:00,
2013-02-02 12:58:00,9.3,-1.1,29.96,South,188,0.0,0.0,62,0.00,-RA,,0.00,39.0,WeatherDisplay:10.37,2013-02-02 18:58:00,
2013-02-02 13:03:00,9.3,-1.4,29.96,South,188,0.0,0.0,61,0.00,-RA,,0.00,58.0,WeatherDisplay:10.37,2013-02-02 19:03:00,
2013-02-02 13:08:00,9.8,-0.3,29.96,South,188,0.0,0.0,63,0.00,-RA,,0.00,63.0,WeatherDisplay:10.37,2013-02-02 19:08:00,
2013-02-02 13:13:00,9.9,-0.2,29.96,South,188,0.0,0.0,63,0.00,-RA,,0.00,40.0,WeatherDisplay:10.37,2013-02-02 19:13:00,
2013-02-02 13:18:00,9.9,-0.5,29.95,South,188,0.0,0.0,62,0.00,-RA,,0.00,47.0,WeatherDisplay:10.37,2013-02-02 19:18:00,
2013-02-02 13:23:00,9.9,-0.5,29.95,SSW,205,3.0,3.0,62,0.00,-RA,,0.00,47.0,WeatherDisplay:10.37,2013-02-02 19:23:00,
2013-02-02 13:28:00,9.9,-0.5,29.95,SSW,209,3.5,3.5,62,0.00,-RA,,0.00,40.0,WeatherDisplay:10.37,2013-02-02 19:28:00,
2013-02-02 13:33:00,9.9,-0.5,29.95,SSW,209,2.3,0.0,62,0.00,-RA,,0.00,28.0,WeatherDisplay:10.37,2013-02-02 19:33:00,
2013-02-02 13:38:00,9.6,-0.8,29.95,SSW,209,3.0,3.0,62,0.00,-RA,,0.00,30.0,WeatherDisplay:10.37,2013-02-02 19:38:00,
2013-02-02 13:43:00,9.5,-0.9,29.95,SSW,209,3.5,3.5,62,0.00,-RA,,0.00,26.0,WeatherDisplay:10.37,2013-02-02 19:43:00,
2013-02-02 13:48:00,9.4,-0.7,29.95,SSW,206,3.5,3.5,63,0.00,-RA,,0.00,25.0,WeatherDisplay:10.37,2013-02-02 19:48:00,
2013-02-02 13:53:00,9.1,-1.0,29.94,SSW,206,1.1,0.0,63,0.00,-RA,,0.00,25.0,WeatherDisplay:10.37,2013-02-02 19:53:00,
2013-02-02 13:58:00,9.0,-0.7,29.94,SSW,206,0.0,0.0,64,0.00,-RA,,0.00,25.0,WeatherDisplay:10.37,2013-02-02 19:58:00,
2013-02-02 14:03:00,8.9,-0.8,29.95,SSW,206,1.1,0.0,64,0.00,-RA,,0.00,26.0,WeatherDisplay:10.37,2013-02-02 20:03:00,
2013-02-02 14:08:00,8.9,-0.8,29.95,SSW,206,3.5,0.0,64,0.00,-RA,,0.00,25.0,WeatherDisplay:10.37,2013-02-02 20:08:00,
2013-02-02 14:13:00,9.0,-0.7,29.95,SSW,206,2.3,2.3,64,0.00,-RA,,0.00,23.0,WeatherDisplay:10.37,2013-02-02 20:13:00,
2013-02-02 14:18:00,9.1,-0.3,29.95,SSW,206,0.0,0.0,65,0.00,-RA,,0.00,23.0,WeatherDisplay:10.37,2013-02-02 20:18:00,
2013-02-02 14:23:00,9.2,-0.5,29.94,SSW,206,0.0,0.0,64,0.00,-RA,,0.00,19.0,WeatherDisplay:10.37,2013-02-02 20:23:00,
2013-02-02 14:28:00,9.2,-0.2,29.94,SSW,206,0.0,0.0,65,0.00,-RA,,0.00,18.0,WeatherDisplay:10.37,2013-02-02 20:28:00,
2013-02-02 14:33:00,9.1,0.0,29.94,SSW,206,0.0,0.0,66,0.00,-RA,,0.00,16.0,WeatherDisplay:10.37,2013-02-02 20:33:00,
2013-02-02 14:38:00,9.1,0.4,29.94,SSW,206,0.0,0.0,67,0.00,-RA,,0.00,16.0,WeatherDisplay:10.37,2013-02-02 20:38:00,
2013-02-02 14:43:00,8.8,0.4,29.94,SSW,206,0.0,0.0,68,0.00,-RA,,0.00,14.0,WeatherDisplay:10.37,2013-02-02 20:43:00,
2013-02-02 14:48:00,8.6,0.5,29.93,SSW,206,0.0,0.0,69,0.00,-RA,,0.00,14.0,WeatherDisplay:10.37,2013-02-02 20:48:00,
2013-02-02 14:53:00,8.3,0.5,29.94,SSW,206,0.0,0.0,70,0.00,-RA,,0.00,12.0,WeatherDisplay:10.37,2013-02-02 20:53:00,
2013-02-02 14:58:00,8.3,0.8,29.94,SSW,206,0.0,0.0,71,0.00,-RA,,0.00,12.0,WeatherDisplay:10.37,2013-02-02 20:58:00,
2013-02-02 15:03:00,8.2,0.7,29.94,SSW,206,0.0,0.0,71,0.00,-RA,,0.00,16.0,WeatherDisplay:10.37,2013-02-02 21:03:00,
2013-02-02 15:08:00,8.3,0.8,29.94,SSW,206,0.0,0.0,71,0.00,-RA,,0.00,21.0,WeatherDisplay:10.37,2013-02-02 21:08:00,
2013-02-02 15:13:00,8.5,1.0,29.93,SSW,206,0.0,0.0,71,0.00,-RA,,0.00,21.0,WeatherDisplay:10.37,2013-02-02 21:13:00,
2013-02-02 15:18:00,8.6,1.7,29.92,SSW,206,0.0,0.0,73,0.00,-RA,,0.00,18.0,WeatherDisplay:10.37,2013-02-02 21:18:00,
2013-02-02 15:23:00,8.7,1.8,29.92,SSW,206,0.0,0.0,73,0.00,-RA,,0.00,12.0,WeatherDisplay:10.37,2013-02-02 21:23:00,
2013-02-02 15:28:00,8.8,1.9,29.92,SSW,206,0.0,0.0,73,0.00,-RA,,0.00,11.0,WeatherDisplay:10.37,2013-02-02 21:28:00,
2013-02-02 15:33:00,8.8,1.9,29.92,SSW,206,0.0,0.0,73,0.00,-RA,,0.00,14.0,WeatherDisplay:10.37,2013-02-02 21:33:00,
2013-02-02 15:38:00,8.8,1.9,29.92,SSW,206,0.0,0.0,73,0.00,-RA,,0.00,16.0,WeatherDisplay:10.37,2013-02-02 21:38:00,
2013-02-02 15:43:00,8.8,1.9,29.91,SSW,206,0.0,0.0,73,0.00,-RA,,0.00,14.0,WeatherDisplay:10.37,2013-02-02 21:43:00,
2013-02-02 15:48:00,8.8,1.9,29.91,SSW,206,0.0,0.0,73,0.00,-RA,,0.00,12.0,WeatherDisplay:10.37,2013-02-02 21:48:00,
2013-02-02 15:53:00,8.7,2.1,29.90,SSW,206,0.0,0.0,74,0.00,-RA,,0.00,12.0,WeatherDisplay:10.37,2013-02-02 21:53:00,
2013-02-02 15:58:00,8.5,1.9,29.90,SSW,206,0.0,0.0,74,0.00,-RA,,0.00,12.0,WeatherDisplay:10.37,2013-02-02 21:58:00,
2013-02-02 16:03:00,8.3,2.0,29.90,SSW,206,0.0,0.0,75,0.00,-RA,,0.00,14.0,WeatherDisplay:10.37,2013-02-02 22:03:00,
2013-02-02 16:08:00,8.3,2.0,29.90,SSW,206,1.1,1.1,75,0.00,-RA,,0.00,12.0,WeatherDisplay:10.37,2013-02-02 22:08:00,
2013-02-02 16:13:00,8.3,1.7,29.90,SSW,206,0.0,0.0,74,0.00,-RA,,0.00,11.0,WeatherDisplay:10.37,2013-02-02 22:13:00,
2013-02-02 16:18:00,8.2,1.6,29.90,SSW,206,0.0,0.0,74,0.00,-RA,,0.00,12.0,WeatherDisplay:10.37,2013-02-02 22:18:00,
2013-02-02 16:23:00,8.2,1.6,29.90,SSW,206,0.0,0.0,74,0.00,-RA,,0.00,19.0,WeatherDisplay:10.37,2013-02-02 22:23:00,
2013-02-02 16:28:00,8.1,1.8,29.90,SSW,206,0.0,0.0,75,0.00,-RA,,0.00,12.0,WeatherDisplay:10.37,2013-02-02 22:28:00,
2013-02-02 16:33:00,8.1,1.8,29.91,SSW,206,0.0,0.0,75,0.00,-RA,,0.00,9.0,WeatherDisplay:10.37,2013-02-02 22:33:00,
2013-02-02 16:38:00,8.0,1.7,29.91,SSW,206,0.0,0.0,75,0.00,-RA,,0.00,5.0,WeatherDisplay:10.37,2013-02-02 22:38:00,
2013-02-02 16:43:00,7.8,1.2,29.91,SSW,206,0.0,0.0,74,0.00,-RA,,0.00,5.0,WeatherDisplay:10.37,2013-02-02 22:43:00,
2013-02-02 16:48:00,7.7,1.1,29.91,SSW,206,0.0,0.0,74,0.00,-RA,,0.00,0.0,WeatherDisplay:10.37,2013-02-02 22:48:00,
2013-02-02 16:53:00,7.4,0.8,29.91,SSW,206,0.0,0.0,74,0.00,-RA,,0.00,0.0,WeatherDisplay:10.37,2013-02-02 22:53:00,
2013-02-02 16:58:00,7.2,0.4,29.91,SSW,206,0.0,0.0,73,0.00,-RA,,0.00,0.0,WeatherDisplay:10.37,2013-02-02 22:58:00,
2013-02-02 17:03:00,6.9,0.1,29.91,SSW,206,0.0,0.0,73,0.00,-RA,,0.00,0.0,WeatherDisplay:10.37,2013-02-02 23:03:00,
2013-02-02 17:08:00,6.7,-0.1,29.91,SSW,206,0.0,0.0,73,0.00,-RA,,0.00,0.0,WeatherDisplay:10.37,2013-02-02 23:08:00,
2013-02-02 17:13:00,6.4,-0.1,29.91,SSW,206,0.0,0.0,74,0.00,-RA,,0.00,0.0,WeatherDisplay:10.37,2013-02-02 23:13:00,
2013-02-02 17:18:00,6.2,-0.3,29.91,SSW,206,0.0,0.0,74,0.00,-RA,,0.00,0.0,WeatherDisplay:10.37,2013-02-02 23:18:00,
2013-02-02 17:23:00,6.0,-0.2,29.91,SSW,206,2.3,2.3,75,0.00,-RA,,0.00,0.0,WeatherDisplay:10.37,2013-02-02 23:23:00,
2013-02-02 17:28:00,5.8,-0.4,29.90,SSW,206,0.0,0.0,75,0.00,-RA,,0.00,0.0,WeatherDisplay:10.37,2013-02-02 23:28:00,
2013-02-02 17:33:00,5.6,-0.3,29.90,SSW,206,0.0,0.0,76,0.00,-RA,,0.00,0.0,WeatherDisplay:10.37,2013-02-02 23:33:00,
2013-02-02 17:38:00,5.5,-0.4,29.90,SSW,206,0.0,0.0,76,0.00,-RA,,0.00,0.0,WeatherDisplay:10.37,2013-02-02 23:38:00,
2013-02-02 17:43:00,5.4,-0.2,29.90,SSW,206,0.0,0.0,77,0.00,-RA,,0.00,0.0,WeatherDisplay:10.37,2013-02-02 23:43:00,
2013-02-02 17:48:00,5.4,-0.2,29.90,SSW,206,0.0,0.0,77,0.00,-RA,,0.00,0.0,WeatherDisplay:10.37,2013-02-02 23:48:00,
2013-02-02 17:53:00,5.3,-0.3,29.90,SSW,206,0.0,0.0,77,0.00,-RA,,0.00,0.0,WeatherDisplay:10.37,2013-02-02 23:53:00,
2013-02-02 17:58:00,5.3,-0.1,29.90,SSW,206,0.0,0.0,78,0.00,-RA,,0.00,0.0,WeatherDisplay:10.37,2013-02-02 23:58:00,
2013-02-02 18:03:00,5.2,-0.2,29.90,SSW,206,0.0,0.0,78,0.00,-RA,,0.00,0.0,WeatherDisplay:10.37,2013-02-03 00:03:00,
2013-02-02 18:08:00,5.2,-0.2,29.91,SSW,206,0.0,0.0,78,0.00,-RA,,0.00,0.0,WeatherDisplay:10.37,2013-02-03 00:08:00,
2013-02-02 18:13:00,5.2,0.1,29.91,SSW,206,0.0,0.0,79,0.00,-RA,,0.00,0.0,WeatherDisplay:10.37,2013-02-03 00:13:00,
2013-02-02 18:18:00,5.2,0.1,29.91,SSW,206,0.0,0.0,79,0.00,-RA,,0.00,0.0,WeatherDisplay:10.37,2013-02-03 00:18:00,
2013-02-02 18:23:00,5.2,0.1,29.91,SSW,206,0.0,0.0,79,0.00,-RA,,0.00,0.0,WeatherDisplay:10.37,2013-02-03 00:23:00,
2013-02-02 18:28:00,5.2,0.1,29.91,SSW,206,0.0,0.0,79,0.00,-RA,,0.00,0.0,WeatherDisplay:10.37,2013-02-03 00:28:00,
2013-02-02 18:33:00,5.2,0.1,29.91,SSW,206,2.3,2.3,79,0.00,-RA,,0.00,0.0,WeatherDisplay:10.37,2013-02-03 00:33:00,
2013-02-02 18:38:00,5.2,0.4,29.91,SW,223,3.5,3.5,80,0.00,-RA,,0.00,0.0,WeatherDisplay:10.37,2013-02-03 00:38:00,
2013-02-02 18:43:00,5.2,0.4,29.91,SW,223,0.0,0.0,80,0.00,-RA,,0.00,0.0,WeatherDisplay:10.37,2013-02-03 00:43:00,
2013-02-02 18:48:00,5.2,0.4,29.91,SW,223,0.0,0.0,80,0.00,-RA,,0.00,0.0,WeatherDisplay:10.37,2013-02-03 00:48:00,
2013-02-02 18:54:00,5.2,0.4,29.92,SW,225,0.0,0.0,80,0.00,-RA,,0.00,0.0,WeatherDisplay:10.37,2013-02-03 00:54:00,
2013-02-02 18:59:00,5.2,0.4,29.92,SW,227,1.1,1.1,80,0.00,-RA,,0.00,0.0,WeatherDisplay:10.37,2013-02-03 00:59:00,
2013-02-02 19:04:00,5.2,0.4,29.92,SW,227,0.0,0.0,80,0.00,-RA,,0.00,0.0,WeatherDisplay:10.37,2013-02-03 01:04:00,
2013-02-02 19:09:00,5.2,0.4,29.91,SW,227,0.0,0.0,80,0.00,-RA,,0.00,0.0,WeatherDisplay:10.37,2013-02-03 01:09:00,
2013-02-02 19:14:00,5.2,0.6,29.91,SW,227,0.0,0.0,81,0.00,-RA,,0.00,0.0,WeatherDisplay:10.37,2013-02-03 01:14:00,
2013-02-02 19:19:00,5.2,0.6,29.91,SW,227,0.0,0.0,81,0.00,-RA,,0.00,0.0,WeatherDisplay:10.37,2013-02-03 01:19:00,
2013-02-02 19:24:00,5.2,0.6,29.91,SW,227,0.0,0.0,81,0.00,-RA,,0.00,0.0,WeatherDisplay:10.37,2013-02-03 01:24:00,
2013-02-02 19:29:00,5.1,0.5,29.91,SW,227,0.0,0.0,81,0.00,-RA,,0.00,0.0,WeatherDisplay:10.37,2013-02-03 01:29:00,
2013-02-02 19:34:00,5.1,0.5,29.91,SW,227,0.0,0.0,81,0.00,-RA,,0.00,0.0,WeatherDisplay:10.37,2013-02-03 01:34:00,
2013-02-02 19:39:00,5.1,0.5,29.91,SW,227,0.0,0.0,81,0.00,-RA,,0.00,0.0,WeatherDisplay:10.37,2013-02-03 01:39:00,
2013-02-02 19:44:00,5.1,0.5,29.91,SW,227,0.0,0.0,81,0.00,-RA,,0.00,0.0,WeatherDisplay:10.37,2013-02-03 01:44:00,
2013-02-02 19:49:00,5.1,0.5,29.91,West,264,2.0,2.0,81,0.00,-RA,,0.00,0.0,WeatherDisplay:10.37,2013-02-03 01:49:00,
2013-02-02 19:54:00,5.1,0.5,29.91,West,268,2.3,2.3,81,0.00,-RA,,0.00,0.0,WeatherDisplay:10.37,2013-02-03 01:54:00,
2013-02-02 19:59:00,5.0,0.4,29.92,WNW,302,3.5,3.5,81,0.00,-RA,,0.00,0.0,WeatherDisplay:10.37,2013-02-03 01:59:00,
2013-02-02 20:04:00,5.0,0.4,29.92,WNW,302,3.5,3.5,81,0.00,-RA,,0.00,0.0,WeatherDisplay:10.37,2013-02-03 02:04:00,
2013-02-02 20:09:00,4.9,0.3,29.92,WNW,302,3.5,3.5,81,0.00,-RA,,0.00,0.0,WeatherDisplay:10.37,2013-02-03 02:09:00,
2013-02-02 20:14:00,4.7,0.2,29.92,WNW,302,3.5,3.5,81,0.00,-RA,,0.00,0.0,WeatherDisplay:10.37,2013-02-03 02:14:00,
2013-02-02 20:19:00,4.6,0.1,29.92,WNW,302,0.0,0.0,81,0.00,-RA,,0.00,0.0,WeatherDisplay:10.37,2013-02-03 02:19:00,
2013-02-02 20:24:00,4.5,0.0,29.92,WNW,302,0.0,0.0,81,0.00,-RA,,0.00,0.0,WeatherDisplay:10.37,2013-02-03 02:24:00,
2013-02-02 20:29:00,4.4,-0.4,29.92,WNW,302,0.0,0.0,80,0.00,-RA,,0.00,0.0,WeatherDisplay:10.37,2013-02-03 02:29:00,
2013-02-02 20:34:00,4.3,-0.5,29.92,WNW,300,3.5,3.5,80,0.00,-RA,,0.00,0.0,WeatherDisplay:10.37,2013-02-03 02:34:00,
2013-02-02 20:39:00,4.1,-0.4,29.92,WNW,299,3.5,3.5,81,0.00,-RA,,0.00,0.0,WeatherDisplay:10.37,2013-02-03 02:39:00,
2013-02-02 20:44:00,4.0,-0.5,29.92,WNW,300,2.3,2.3,81,0.00,-RA,,0.00,0.0,WeatherDisplay:10.37,2013-02-03 02:44:00,
2013-02-02 20:49:00,3.8,-1.0,29.92,WNW,299,3.5,3.5,80,0.00,-RA,,0.00,0.0,WeatherDisplay:10.37,2013-02-03 02:49:00,
2013-02-02 20:54:00,3.7,-1.1,29.92,WNW,296,3.5,3.5,80,0.00,-RA,,0.00,0.0,WeatherDisplay:10.37,2013-02-03 02:54:00,
2013-02-02 20:59:00,3.6,-1.2,29.92,WNW,296,3.0,3.0,80,0.00,-RA,,0.00,0.0,WeatherDisplay:10.37,2013-02-03 02:59:00,
2013-02-02 21:04:00,3.5,-1.0,29.92,NNW,330,3.5,3.5,81,0.00,-RA,,0.00,0.0,WeatherDisplay:10.37,2013-02-03 03:04:00,
2013-02-02 21:09:00,3.4,-1.1,29.92,WNW,292,3.5,3.5,81,0.00,-RA,,0.00,0.0,WeatherDisplay:10.37,2013-02-03 03:09:00,
2013-02-02 21:14:00,3.3,-1.2,29.92,NW,314,3.5,3.5,81,0.00,-RA,,0.00,0.0,WeatherDisplay:10.37,2013-02-03 03:14:00,
2013-02-02 21:19:00,3.2,-1.3,29.92,NW,311,3.5,3.5,81,0.00,-RA,,0.00,0.0,WeatherDisplay:10.37,2013-02-03 03:19:00,
2013-02-02 21:24:00,3.1,-1.4,29.92,NW,311,0.0,0.0,81,0.00,-RA,,0.00,0.0,WeatherDisplay:10.37,2013-02-03 03:24:00,
2013-02-02 21:28:00,3.1,-1.4,29.92,NW,310,2.3,2.3,81,0.00,-RA,,0.00,0.0,WeatherDisplay:10.37,2013-02-03 03:28:00,
2013-02-02 21:29:00,3.1,-1.4,29.92,NW,310,2.3,2.3,81,0.00,-RA,,0.00,0.0,WeatherDisplay:10.37,2013-02-03 03:29:00,
2013-02-02 21:34:00,3.1,-1.4,29.92,NW,310,2.3,2.3,81,0.00,-RA,,0.00,0.0,WeatherDisplay:10.37,2013-02-03 03:34:00,
2013-02-02 21:40:00,3.0,-1.5,29.92,NW,309,0.0,4.0,81,0.00,-RA,,0.00,0.0,WeatherDisplay:10.37,2013-02-03 03:40:00,
2013-02-02 21:50:00,2.9,-1.3,29.92,West,278,0.0,8.0,82,0.00,-RA,,0.00,0.0,WeatherDisplay:10.37,2013-02-03 03:50:00,
2013-02-02 22:00:00,2.8,-1.7,29.92,NW,316,0.0,5.0,81,0.00,-RA,,0.00,0.0,WeatherDisplay:10.37,2013-02-03 04:00:00,
2013-02-02 22:10:00,2.8,-1.7,29.92,NW,310,1.0,4.0,81,0.00,-RA,,0.00,0.0,WeatherDisplay:10.37,2013-02-03 04:10:00,
2013-02-02 22:20:00,2.7,-1.8,29.92,West,277,0.0,8.0,81,0.00,-RA,,0.00,0.0,WeatherDisplay:10.37,2013-02-03 04:20:00,
2013-02-02 22:28:00,3.1,-1.4,29.92,NW,310,2.3,2.3,81,0.00,-RA,,0.00,0.0,WeatherDisplay:10.37,2013-02-03 04:28:00,
2013-02-02 22:30:00,2.6,-1.9,29.92,NW,310,1.0,5.0,81,0.00,-RA,,0.00,0.0,WeatherDisplay:10.37,2013-02-03 04:30:00,
2013-02-02 22:33:00,3.1,-1.4,29.92,NW,310,2.3,2.3,81,0.00,-RA,,0.00,0.0,WeatherDisplay:10.37,2013-02-03 04:33:00,
2013-02-02 22:40:00,2.4,-2.1,29.93,WNW,292,0.0,6.0,81,0.00,-RA,,0.00,0.0,WeatherDisplay:10.37,2013-02-03 04:40:00,
2013-02-02 22:50:00,2.3,-1.9,29.92,West,280,1.0,6.0,82,0.00,-RA,,0.00,0.0,WeatherDisplay:10.37,2013-02-03 04:50:00,
2013-02-02 23:00:00,2.3,-1.9,29.92,West,270,0.0,3.0,82,0.00,-RA,,0.00,0.0,WeatherDisplay:10.37,2013-02-03 05:00:00,
2013-02-02 23:10:00,2.2,-2.0,29.92,WNW,296,3.0,7.0,82,0.00,-RA,,0.00,0.0,WeatherDisplay:10.37,2013-02-03 05:10:00,
2013-02-02 23:20:00,2.1,-2.1,29.92,NW,315,0.0,5.0,82,0.00,-RA,,0.00,0.0,WeatherDisplay:10.37,2013-02-03 05:20:00,
2013-02-02 23:30:00,2.0,-2.2,29.92,WNW,303,0.0,6.0,82,0.00,-RA,,0.00,0.0,WeatherDisplay:10.37,2013-02-03 05:30:00,
2013-02-02 23:40:00,2.0,-2.2,29.92,WNW,292,1.0,5.0,82,0.00,-RA,,0.00,0.0,WeatherDisplay:10.37,2013-02-03 05:40:00,
2013-02-02 23:49:00,1.9,-2.3,29.93,NW,323,8.0,8.0,82,0.00,-RA,,0.00,0.0,WeatherDisplay:10.37,2013-02-03 05:49:00,
2013-02-02 23:54:00,1.9,-2.3,29.93,NW,307,3.5,3.5,82,0.00,-RA,,0.00,0.0,WeatherDisplay:10.37,2013-02-03 05:54:00,
2013-02-02 23:59:00,1.9,-2.3,29.93,WNW,298,1.0,1.0,82,0.00,-RA,,0.00,0.0,WeatherDisplay:10.37,2013-02-03 05:59:00,